Location: Branche des Alpilles
(43.6087°N, 4.6976°E)
Time: 17:48:52
(UTC+00:00)

Meteor 2-6 Rocket - Pass Details

Date: 30 November 2020
Orbit: 806 x 914 km, 81.3° (Epoch: 23 January)

Event Time Altitude Azimuth Distance (km) Brightness Sun altitude
Rises 17:33:41 0° 170° (S) 3,421 7.4 -15.5°
Reaches altitude 10° 17:36:13 10° 164° (SSE) 2,472 6.6 -15.9°
Maximum altitude 17:41:30 45° 93° (E) 1,124 4.4 -16.8°
Enters shadow 17:45:55 14° 25° (NNE) 2,151 6.0 -17.6°
